Temperature
-2 -2 -2 -2 -2 -2 -1 0 1 1 2 3 4 5 7 8 9 10 10 11 12 12 13 13 14 14 15 15 15 15 15 15 16 16 16 16 16 16 16 16 16 16 16
-3 -3 -3 -3 -4 -4 -3 -2 -1 -1 1 1 2 3 5 6 8 9 10 10 11 12 12 13 13 14 14 15 15 15 15 15 15 16 16 16 16 16 16 16 16 16 16
-4 -4 -4 -4 -5 -5 -5 -4 -4 -2 -1 0 1 2 3 5 6 8 9 10 10 11 12 12 13 13 14 14 14 15 15 15 15 15 16 16 16 16 16 16 16 16 16
-5 -5 -5 -6 -6 -6 -6 -6 -6 -5 -4 -2 -1 1 2 4 5 7 8 9 10 10 11 12 12 13 13 14 14 14 15 15 15 15 15 15 16 16 16 16 16 16 16
-5 -6 -6 -7 -7 -6 -6 -7 -7 -7 -6 -5 -4 -2 1 2 4 5 7 8 9 10 10 11 11 12 12 13 13 14 14 15 15 14 14 15 15 16 16 16 16 16 16
-6 -7 -8 -8 -8 -7 -7 -7 -8 -7 -7 -6 -5 -4 -1 1 3 4 5 7 8 9 9 10 11 11 12 12 13 13 14 14 14 14 14 14 15 15 16 16 16 16 16
-7 -8 -8 -9 -9 -9 -9 -8 -8 -8 -7 -7 -6 -5 -2 0 2 2 3 5 6 8 9 9 10 10 11 11 12 13 13 14 14 14 14 14 14 15 15 15 16 16 16
-8 -9 -9 -9 -10 -10 -9 -9 -9 -9 -8 -7 -7 -6 -5 -3 -0 1 2 3 4 6 7 8 9 9 10 11 11 12 12 13 13 14 14 14 14 14 15 15 15 15 16
-9 -10 -10 -10 -10 -10 -10 -10 -10 -10 -9 -8 -7 -6 -5 -4 -5 -1 0 1 2 3 5 7 8 9 9 10 10 11 12 12 13 13 14 14 14 14 14 15 15 15 15
-10 -10 -11 -11 -11 -11 -11 -11 -11 -10 -10 -9 -8 -7 -6 -6 -5 -4 -3 -1 0 2 3 5 7 8 9 9 10 10 11 12 12 13 13 14 14 14 14 14 15 15 15
-10 -11 -11 -12 -12 -12 -12 -11 -11 -10 -10 -9 -8 -8 -7 -6 -6 -5 -4 -3 -1 1 2 3 5 7 8 9 9 10 10 11 12 12 13 13 14 14 14 14 15 15 15
-11 -11 -12 -12 -12 -12 -12 -12 -11 -11 -10 -9 -9 -8 -7 -7 -6 -6 -6 -5 -4 -2 1 3 4 6 7 8 9 9 10 11 11 12 12 13 13 14 14 14 14 14 15
-13 -13 -13 -13 -13 -13 -12 -12 -12 -11 -10 -10 -9 -8 -8 -7 -7 -7 -6 -5 -5 -4 -2 1 3 4 6 7 8 9 9 10 11 11 12 12 13 13 13 14 14 14 14
-13 -13 -13 -13 -13 -13 -13 -12 -12 -11 -10 -10 -9 -8 -8 -8 -7 -7 -6 -6 -5 -4 -3 -2 1 3 4 6 7 8 9 10 10 11 11 11 12 12 13 13 14 14 14
-14 -14 -14 -14 -13 -13 -13 -12 -12 -11 -10 -9 -9 -8 -8 -8 -7 -7 -7 -6 -5 -4 -3 -3 -1 1 3 5 6 8 9 9 10 10 11 11 11 12 12 13 13 14 14
-14 -14 -14 -14 -13 -13 -13 -12 -12 -11 -10 -9 -9 -8 -8 -8 -7 -7 -6 -6 -5 -4 -4 -3 -2 -1 2 4 5 7 8 9 9 10 11 11 11 11 12 12 13 13 13
-14 -14 -14 -14 -13 -13 -13 -12 -11 -10 -10 -9 -9 -8 -8 -8 -7 -7 -6 -6 -5 -5 -4 -3 -2 -1 0 3 4 5 6 8 9 9 10 11 11 11 11 12 12 12 13
-14 -14 -14 -13 -13 -13 -12 -12 -11 -10 -9 -9 -9 -8 -8 -7 -7 -7 -6 -6 -5 -4 -4 -3 -2 -2 -0 1 2 3 5 7 8 9 9 10 11 11 11 11 12 12 12
-13 -13 -13 -13 -13 -12 -12 -11 -10 -10 -9 -9 -9 -8 -8 -8 -7 -7 -6 -6 -5 -4 -4 -3 -3 -2 -1 0 1 2 3 5 7 8 9 9 10 11 11 11 12 12 12
-13 -13 -13 -13 -12 -12 -11 -10 -10 -9 -9 -9 -9 -9 -8 -8 -8 -7 -7 -6 -6 -5 -4 -3 -3 -2 -1 -0 0 1 2 4 6 7 8 9 10 10 11 11 11 12 12
-13 -13 -12 -12 -12 -11 -10 -10 -9 -9 -9 -9 -9 -9 -9 -9 -9 -8 -8 -7 -7 -6 -5 -4 -3 -2 -1 -0 0 1 2 4 5 7 8 9 9 10 11 11 11 11 12
-13 -12 -12 -12 -11 -11 -10 -10 -10 -10 -10 -9 -9 -9 -9 -9 -9 -9 -8 -8 -8 -7 -7 -5 -4 -3 -2 -1 0 1 2 3 5 6 7 8 8 9 10 11 11 11 12
-13 -13 -12 -12 -11 -10 -10 -10 -10 -10 -10 -10 -10 -10 -10 -10 -10 -9 -9 -8 -7 -7 -7 -7 -6 -5 -3 -2 -1 1 2 3 4 6 7 7 7 8 9 10 11 11 11
-13 -13 -13 -12 -11 -11 -10 -11 -11 -11 -10 -10 -10 -11 -11 -10 -10 -10 -9 -9 -8 -8 -7 -7 -7 -6 -5 -4 -2 0 2 3 4 5 6 7 7 7 8 8 9 10 11
-13 -13 -13 -12 -12 -11 -11 -11 -11 -11 -11 -11 -11 -11 -11 -11 -11 -11 -10 -9 -9 -8 -8 -7 -7 -7 -5 -4 -2 -1 1 2 4 4 5 6 6 7 7 7 8 8 9
-13 -13 -13 -13 -13 -12 -12 -11 -12 -12 -12 -12 -12 -12 -12 -12 -11 -11 -11 -10 -10 -9 -8 -7 -7 -6 -5 -4 -3 -1 0 2 3 4 5 5 6 6 5 6 6 7 8
Wind_Speed
19 20 19 20 21 21 21 20 19 20 19 20 19 19 18 19 20 18 18 24 26 24 23 24 27 30 31 31 30 30 29 28 26 25 25 25 25 24 24 25 24 24 24
21 20 19 18 19 21 21 20 20 16 15 15 15 18 18 19 18 19 19 21 24 24 23 23 24 27 30 30 30 30 31 30 29 27 26 26 25 25 25 25 25 25 25
23 21 18 16 19 22 21 19 18 16 14 13 15 15 15 16 17 19 20 18 18 21 22 21 22 24 27 29 28 28 30 31 30 29 28 27 26 26 25 25 25 25 25
24 22 17 16 21 21 19 14 10 13 14 14 14 14 13 14 17 18 18 17 16 16 18 20 20 23 25 27 27 27 28 30 32 32 30 29 28 27 26 25 25 25 25
24 22 17 18 21 18 15 13 13 13 15 15 15 14 13 15 16 16 15 15 15 15 14 17 18 20 24 26 26 27 27 28 31 34 33 31 29 28 27 26 25 25 25
24 22 17 19 20 13 11 12 14 14 13 14 16 16 15 16 14 12 12 11 11 12 13 13 12 13 19 24 25 25 26 27 29 33 35 33 31 29 27 26 26 26 25
23 20 18 17 17 11 12 14 14 15 13 13 14 15 14 12 11 7 7 9 10 10 10 9 8 10 10 17 22 23 25 26 28 31 34 35 33 30 28 27 26 26 25
22 20 19 15 15 10 12 13 14 12 12 12 12 12 8 7 6 10 7 8 9 11 11 10 8 7 8 8 12 18 21 24 26 29 32 35 35 33 31 28 27 26 26
21 20 20 18 15 9 10 12 12 14 14 13 10 7 6 6 13 7 6 6 9 10 11 10 10 9 9 8 9 13 18 22 24 26 29 33 35 35 33 31 29 28 27
20 20 21 18 16 12 11 12 12 12 13 12 11 8 8 9 7 8 7 6 9 11 10 11 12 11 11 7 9 14 17 20 24 25 27 31 35 35 34 32 30 28 27
18 20 21 18 16 13 10 11 13 12 11 12 11 11 11 9 8 8 14 13 12 8 9 11 10 10 10 8 7 13 18 19 22 24 25 28 33 35 35 33 31 30 29
12 19 20 18 17 14 11 12 11 13 13 13 12 11 10 7 8 8 11 16 16 13 12 9 9 8 8 8 10 13 17 20 20 21 22 24 29 33 34 34 33 32 31
10 12 18 16 15 15 16 14 12 13 13 14 13 11 9 9 9 10 12 14 16 14 9 8 6 6 8 7 8 13 14 20 20 19 20 21 24 28 32 34 34 34 33
11 15 18 18 18 18 18 14 11 12 12 13 14 13 10 9 9 9 10 12 14 13 9 8 8 7 5 5 10 14 9 15 19 18 17 18 20 23 27 30 33 34 33
16 19 19 17 17 17 15 12 11 13 13 13 12 12 10 9 8 9 10 10 10 13 13 8 5 4 7 7 12 12 11 11 15 16 16 16 18 20 23 26 28 31 32
17 16 15 14 14 14 14 12 12 13 14 13 11 12 11 9 9 9 10 10 10 12 13 8 8 11 12 12 14 13 14 16 12 14 15 15 15 17 20 23 25 27 29
16 14 14 15 16 16 14 14 14 15 15 14 13 12 12 11 10 9 9 10 10 10 13 13 10 10 11 10 10 10 13 9 7 12 13 14 14 15 17 20 23 25 27
16 16 15 16 17 17 16 16 16 15 14 13 12 11 11 10 11 9 8 9 9 10 11 14 10 8 9 8 8 10 12 9 5 9 12 13 14 14 15 17 20 22 25
14 16 15 16 17 18 17 16 14 13 11 9 9 9 10 11 11 9 9 8 7 8 8 9 9 7 6 6 6 9 12 10 6 6 9 11 13 14 14 16 18 20 23
14 15 16 17 18 19 17 14 10 7 6 7 8 9 9 11 13 12 9 10 9 9 8 7 7 6 5 5 4 6 9 7 4 2 4 6 9 13 14 16 17 19 21
15 15 17 18 19 17 13 11 8 8 8 9 10 10 11 16 21 17 13 12 11 9 8 7 6 5 4 3 3 3 7 6 4 2 3 3 4 5 8 12 15 18 20
15 15 16 18 20 17 21 22 16 11 11 11 11 12 12 13 19 22 23 21 19 14 12 9 7 7 5 4 3 3 5 5 3 2 3 3 3 4 5 5 13 18 20
13 14 15 17 19 21 25 25 24 15 13 12 12 11 13 15 15 11 17 20 19 22 20 13 10 9 8 7 7 5 4 4 3 2 3 3 2 3 2 4 14 18 20
11 11 13 16 17 22 27 24 22 14 12 13 13 13 12 14 16 16 13 12 11 13 17 12 10 11 11 10 8 6 6 5 2 1 2 3 3 3 3 4 13 20 24
8 10 11 14 16 19 25 23 20 9 10 12 13 16 16 13 25 25 17 14 13 13 18 21 20 18 19 18 13 4 4 4 3 1 2 3 4 5 6 6 12 26 32
9 11 11 12 13 14 24 23 19 9 10 10 10 14 21 22 26 26 16 15 16 14 15 16 16 17 14 15 17 9 5 2 2 2 1 3 5 5 6 6 9 15 24
Wind_Direction
352 349 345 340 337 340 339 335 333 331 332 329 326 325 322 318 313 311 310 308 308 303 292 277 255 237 228 220 211 205 203 202 201 198 195 192 191 191 190 189 187 185 185
350 348 343 339 341 341 335 331 327 328 326 324 321 321 316 312 310 310 307 304 304 303 299 286 261 239 228 222 215 208 204 202 201 200 197 193 190 190 191 190 188 187 187
350 347 340 341 343 339 335 332 326 329 324 321 318 316 313 310 309 306 303 298 296 299 298 293 271 246 232 226 219 214 209 205 202 200 198 194 191 189 189 190 189 188 188
350 346 339 342 342 341 338 332 331 328 324 320 316 314 311 309 305 301 297 293 291 290 293 292 280 256 240 231 224 219 214 209 205 202 199 195 191 189 188 188 188 189 188
348 344 339 343 342 340 338 334 332 327 323 318 315 312 310 305 297 295 295 293 289 283 281 284 282 267 249 237 230 224 219 214 210 206 200 196 192 190 189 188 187 187 188
346 343 343 342 342 339 336 332 329 326 321 318 316 312 305 294 287 286 293 298 297 295 286 278 276 272 255 240 233 229 224 219 215 210 203 197 193 191 190 189 188 187 187
344 342 344 340 340 336 331 328 329 325 325 322 318 316 303 283 277 294 309 312 317 321 309 292 275 264 260 246 236 231 227 223 219 214 207 200 195 192 191 191 189 188 188
341 343 340 336 335 331 328 329 326 326 323 324 319 317 315 310 333 316 305 314 338 337 327 319 308 289 262 250 241 235 231 229 224 219 211 204 197 193 192 192 192 191 190
336 336 334 331 331 328 325 325 322 326 321 316 312 309 315 320 325 299 300 320 335 330 334 333 330 317 290 256 244 243 236 231 228 223 216 209 201 196 193 192 193 192 192
331 333 331 329 328 326 322 322 326 318 316 315 314 300 301 301 302 309 310 318 321 322 324 329 329 324 311 279 249 242 241 234 230 227 221 213 206 200 195 193 193 193 194
328 329 328 328 326 323 318 317 317 316 314 309 308 307 302 296 283 294 302 312 317 311 316 315 312 310 312 301 272 246 238 238 232 227 224 218 211 205 199 194 193 193 194
325 325 326 326 323 320 317 316 315 312 310 306 306 303 300 301 306 303 298 304 307 309 310 301 296 296 304 312 299 271 243 234 232 225 222 220 215 209 203 196 194 194 194
326 320 322 322 320 318 316 315 313 310 307 305 305 301 298 297 299 296 294 298 299 303 301 297 290 301 305 310 314 302 257 236 228 223 218 217 215 212 207 200 196 195 195
321 318 320 317 316 317 316 312 309 307 305 304 301 300 296 293 294 292 290 294 296 297 293 288 300 282 293 320 330 328 290 247 227 216 211 211 210 209 208 204 198 195 195
323 322 318 315 314 314 311 309 305 305 303 300 297 297 294 291 291 289 285 280 283 291 295 295 295 313 335 326 328 331 318 278 233 209 202 203 207 207 207 206 202 197 193
320 318 317 315 313 312 309 308 306 304 303 300 298 296 295 290 291 287 283 279 275 278 281 284 294 306 311 308 318 323 314 301 255 212 197 195 200 204 205 204 202 200 195
321 320 319 317 316 313 313 310 306 306 304 303 301 299 298 297 295 289 284 279 275 273 277 285 285 290 293 302 310 312 307 299 271 221 199 192 194 198 202 202 200 199 196
322 321 320 318 318 317 313 308 306 305 301 301 303 309 313 315 310 301 292 283 279 274 275 283 285 284 282 289 297 302 306 299 274 229 204 193 192 195 198 200 199 197 194
323 324 324 322 321 319 314 309 304 302 304 310 321 330 334 340 340 332 324 319 307 297 287 284 285 276 273 276 290 296 295 286 272 230 203 195 192 194 198 200 199 196 193
328 329 328 327 327 324 319 315 316 326 340 347 349 348 353 2 358 351 352 353 346 336 325 308 295 279 261 252 249 269 277 278 265 221 183 177 187 194 198 200 200 197 194
339 335 335 335 334 332 332 347 11 28 19 10 2 359 6 18 13 9 12 9 2 358 351 338 323 303 281 250 227 236 261 273 262 211 163 164 170 180 190 201 201 198 194
340 340 340 340 342 345 5 31 46 33 25 18 10 3 4 16 17 12 13 16 14 12 7 359 344 330 325 325 309 261 257 255 237 205 151 144 148 166 175 185 193 191 190
342 343 343 346 348 352 24 40 43 35 26 18 10 6 12 9 21 10 7 12 12 13 14 8 353 345 337 336 324 298 270 258 233 198 139 129 115 135 133 175 180 177 174
341 342 343 349 353 359 20 38 37 27 23 17 10 6 9 4 17 20 5 5 9 7 6 5 358 351 346 340 321 287 281 287 283 1 101 120 98 89 81 112 155 153 147
339 341 345 348 352 354 13 34 37 15 17 12 11 9 12 10 14 20 12 4 7 4 2 3 4 4 1 357 356 324 267 232 200 114 43 108 110 88 70 76 113 127 128
345 346 345 347 349 350 9 29 40 25 16 10 10 6 9 15 14 19 16 7 9 3 355 354 357 359 358 357 4 2 332 266 197 146 126 114 126 112 81 56 87 107 115
Height
1520 1515 1510 1505 1501 1497 1493 1489 1485 1481 1478 1475 1473 1471 1469 1468 1468 1467 1467 1468 1469 1470 1472 1474 1477 1480 1484 1489 1493 1497 1501 1505 1509 1512 1516 1519 1523 1527 1531 1535 1539 1543 1547
1518 1513 1508 1503 1498 1494 1489 1485 1481 1476 1472 1469 1466 1464 1462 1460 1459 1459 1460 1460 1462 1463 1465 1467 1470 1473 1476 1481 1485 1489 1494 1498 1503 1507 1511 1514 1518 1522 1526 1531 1535 1539 1543
1516 1510 1505 1500 1495 1490 1485 1480 1476 1472 1468 1463 1460 1457 1455 1453 1452 1451 1452 1453 1454 1455 1457 1460 1462 1465 1469 1473 1477 1481 1486 1491 1496 1501 1505 1509 1513 1517 1521 1526 1530 1535 1539
1514 1508 1503 1497 1492 1487 1482 1477 1473 1468 1463 1458 1454 1450 1448 1446 1444 1444 1444 1445 1446 1448 1450 1452 1455 1458 1462 1466 1470 1474 1479 1483 1488 1494 1499 1503 1508 1512 1516 1521 1525 1530 1535
1511 1505 1500 1495 1489 1484 1479 1475 1470 1465 1460 1454 1449 1444 1441 1439 1438 1437 1437 1437 1439 1440 1442 1445 1447 1451 1455 1459 1463 1467 1471 1476 1481 1486 1491 1497 1502 1507 1511 1516 1521 1525 1530
1508 1502 1497 1491 1486 1481 1476 1471 1467 1462 1458 1452 1446 1440 1435 1433 1432 1431 1430 1430 1431 1432 1435 1437 1440 1443 1447 1452 1456 1460 1465 1470 1474 1478 1483 1489 1495 1501 1506 1511 1516 1521 1526
1505 1499 1493 1488 1483 1478 1473 1469 1464 1459 1454 1450 1444 1436 1429 1427 1425 1424 1424 1423 1424 1425 1427 1430 1433 1435 1439 1444 1449 1453 1458 1463 1468 1473 1477 1483 1488 1494 1500 1506 1512 1517 1521
1502 1496 1490 1485 1480 1474 1469 1465 1461 1456 1451 1449 1445 1437 1429 1423 1421 1419 1418 1417 1417 1418 1420 1422 1426 1428 1431 1436 1442 1446 1451 1456 1461 1466 1472 1476 1482 1488 1494 1500 1507 1512 1517
1499 1493 1487 1482 1476 1471 1466 1461 1458 1453 1449 1446 1444 1441 1435 1428 1420 1411 1412 1412 1412 1412 1413 1416 1419 1422 1424 1428 1434 1439 1444 1449 1455 1460 1465 1470 1476 1482 1488 1495 1501 1507 1512
1495 1489 1483 1478 1473 1467 1462 1458 1454 1450 1447 1443 1440 1438 1436 1432 1427 1416 1407 1407 1408 1407 1408 1409 1412 1415 1419 1423 1426 1432 1437 1443 1448 1453 1459 1464 1470 1476 1482 1489 1495 1501 1507
1491 1486 1480 1474 1468 1463 1458 1454 1449 1446 1443 1440 1437 1434 1431 1429 1426 1421 1411 1403 1402 1403 1403 1404 1406 1410 1414 1417 1421 1425 1431 1437 1442 1447 1452 1458 1463 1470 1476 1482 1489 1495 1501
1486 1481 1476 1470 1464 1459 1454 1449 1445 1441 1438 1435 1432 1430 1428 1426 1422 1419 1413 1406 1400 1397 1398 1399 1401 1404 1408 1411 1415 1420 1425 1430 1436 1441 1446 1452 1458 1464 1470 1476 1483 1490 1496
1481 1476 1471 1466 1460 1454 1449 1444 1440 1436 1433 1430 1428 1425 1423 1421 1419 1416 1412 1406 1400 1395 1394 1394 1397 1399 1402 1406 1410 1414 1419 1424 1430 1436 1441 1446 1452 1458 1464 1470 1477 1484 1490
1478 1473 1467 1462 1456 1450 1444 1439 1435 1431 1428 1425 1423 1421 1418 1416 1414 1412 1409 1406 1400 1394 1392 1391 1391 1394 1397 1400 1404 1408 1413 1418 1424 1429 1435 1440 1446 1452 1458 1464 1471 1477 1484
1476 1470 1463 1457 1451 1445 1440 1435 1430 1427 1424 1421 1418 1416 1414 1411 1409 1407 1404 1403 1401 1394 1389 1388 1389 1390 1392 1395 1397 1401 1406 1412 1417 1423 1428 1434 1439 1445 1451 1458 1465 1472 1479
1473 1467 1460 1453 1447 1441 1435 1430 1426 1422 1419 1416 1414 1412 1410 1407 1404 1401 1399 1397 1396 1394 1389 1385 1386 1386 1387 1389 1392 1395 1400 1405 1410 1416 1422 1428 1433 1439 1445 1452 1459 1466 1473
1472 1464 1457 1450 1443 1436 1431 1426 1422 1418 1415 1413 1411 1409 1406 1403 1399 1396 1394 1392 1390 1389 1386 1382 1383 1382 1382 1384 1387 1391 1395 1399 1404 1410 1416 1421 1427 1433 1439 1446 1452 1460 1467
1470 1463 1455 1447 1440 1433 1426 1422 1417 1415 1412 1410 1408 1406 1403 1399 1396 1392 1389 1387 1385 1384 1382 1379 1379 1380 1380 1381 1382 1386 1388 1393 1399 1404 1410 1415 1421 1426 1432 1439 1446 1454 1461
1469 1462 1454 1446 1437 1429 1422 1418 1414 1413 1411 1410 1408 1405 1401 1397 1393 1389 1386 1383 1381 1379 1378 1376 1375 1376 1377 1378 1379 1381 1384 1389 1394 1399 1404 1410 1415 1420 1427 1433 1440 1447 1455
1469 1462 1454 1445 1436 1428 1420 1416 1414 1413 1412 1411 1408 1405 1401 1397 1393 1389 1384 1381 1378 1375 1374 1373 1372 1373 1374 1375 1377 1379 1382 1385 1389 1395 1400 1405 1410 1416 1421 1428 1434 1441 1449
1470 1463 1455 1446 1437 1428 1421 1418 1416 1416 1414 1412 1409 1406 1403 1399 1394 1389 1385 1380 1377 1373 1371 1369 1369 1369 1371 1373 1375 1378 1380 1381 1385 1390 1395 1400 1405 1410 1415 1421 1428 1435 1443
1472 1464 1457 1449 1439 1431 1427 1424 1421 1419 1417 1414 1411 1408 1404 1399 1394 1389 1385 1380 1377 1373 1370 1368 1367 1367 1368 1370 1371 1374 1377 1379 1382 1386 1390 1395 1400 1406 1410 1416 1423 1430 1437
1473 1466 1460 1452 1444 1437 1433 1430 1426 1424 1421 1418 1414 1410 1406 1402 1396 1390 1385 1380 1376 1373 1370 1368 1366 1365 1366 1367 1368 1370 1373 1376 1379 1383 1387 1392 1397 1401 1406 1412 1418 1425 1432
1476 1470 1463 1457 1450 1444 1440 1436 1432 1428 1425 1421 1417 1414 1409 1404 1399 1392 1386 1381 1376 1372 1369 1367 1365 1364 1364 1363 1364 1366 1369 1373 1377 1380 1385 1389 1394 1398 1403 1409 1414 1420 1427
1478 1473 1467 1461 1455 1449 1446 1441 1436 1432 1429 1425 1420 1416 1412 1407 1402 1395 1388 1382 1377 1374 1371 1367 1364 1362 1360 1360 1360 1362 1366 1369 1373 1376 1381 1386 1391 1396 1402 1407 1413 1419 1424
1481 1476 1471 1465 1459 1454 1450 1446 1440 1436 1431 1427 1423 1418 1414 1410 1404 1398 1391 1385 1379 1375 1371 1367 1364 1360 1358 1357 1357 1358 1361 1366 1370 1374 1378 1383 1387 1392 1401 1408 1413 1419 1425